User: anonymous   Login
Location: Mentone
(34.5413°N, 85.5351°W)
Time: 08:13:46
(UTC-05:00)
Language:

AO-Echo - Orbit

View from above orbital plane
View from above orbital plane
View from above satellite
View from above satellite

Ground track
Ground track

The orbit data is extracted from the following two-line orbital elements,

1 28375U 04025K   15084.81534784  .00000299  00000-0  10156-3 0  9990
2 28375 098.2856 027.6897 0081907 220.7955 138.7084 14.41614308564478
Epoch (UTC): 25 March 2015 19:34:06
Eccentricity: 0.0081907
inclination: 98.2856°
perigee height: 695 km
apogee height: 811 km
right ascension of ascending node: 27.6897°
argument of perigee: 220.7955°
revolutions per day: 14.41614308
mean anomaly at epoch: 138.7084°
orbit number at epoch: 56447

The dashed part of the orbit path shows where the satellite is in the earth's shadow,  

DLR